[[{"header":{"parameterUnit":"m.s-1","parameterCategory":1,"la1":30.2991,"la2":30.254,"lo1":-89.0895,"lo2":-89.0444,"dy":0.0017,"dx":0.0017,"nx":28,"ny":28,"refTime":"2023-10-06T21:00:00:Z","depth":0,"parameterNumber":2,"parameterNumberName":"U-component_of_WINDS"},"data":[0,0,0,0,0,0,0,0,0,0,0,0,0,0,0,0,0,0,0,0,0,0,0,0,0,0,0,0,0,0,0,0,0,0,0,0,0,0,0,0,0,0,0,0,0,0,0,0,0,0,0,0,0,0,0,0,0,0,-2.1638,-2.1639,0,-2.1681,-2.1682,-2.1682,-2.1587,-2.1584,-2.158,-2.1578,-2.1623,-2.1627,-2.1631,0,0,0,0,0,0,0,0,0,0,0,0,0,-2.1473,-2.1477,-2.1638,-2.1639,-2.1639,-2.1681,-2.1682,-2.1682,-2.1587,-2.1583,-2.158,-2.1576,-2.1622,-2.1626,-2.1631,0,0,0,0,0,0,0,0,0,0,0,0,0,-2.1534,-2.1478,-2.1638,-2.1597,-2.1594,-2.1681,-2.1682,-2.1683,-2.1588,-2.1583,-2.1579,-2.1574,-2.162,-2.1626,-2.1632,-2.1762,0,0,-2.1651,-2.1653,0,0,0,0,0,0,0,0,-2.153,-2.154,-2.1602,-2.16,-2.1596,-2.1624,-2.164,-2.1709,-2.1589,-2.159,-2.1577,-2.1572,-2.1627,-2.1632,-2.1651,-2.1764,-2.1766,-2.1651,-2.1655,-2.1657,-2.1659,0,0,0,0,0,0,0,-2.1526,-2.1537,-2.1655,-2.1603,-2.16,-2.1576,-2.1579,-2.1653,-2.1634,-2.159,-2.1583,-2.1589,-2.1624,-2.1645,-2.1651,-2.1767,-2.1651,-2.1656,-2.166,-2.1663,-2.1988,-2.1993,0,0,0,0,0,0,-2.1527,-2.1535,-2.1654,-2.1657,-2.1551,-2.1583,-2.1587,-2.162,-2.1633,-2.163,-2.1593,-2.1585,-2.1637,-2.1644,-2.1652,-2.1805,-2.1657,-2.1663,-2.1667,-2.1983,-2.1989,-2.1995,0,0,0,0,0,0,-2.1524,-2.1539,-2.1652,-2.1594,-2.1606,-2.159,-2.1629,-2.1623,-2.1643,-2.1635,-2.1632,-2.1618,-2.1633,-2.1644,-2.1735,-2.1806,-2.1666,-2.1671,-2.1977,-2.1985,-2.1992,-2.2113,0,0,0,0,0,0,-2.152,-2.1538,-2.1588,-2.1596,-2.161,-2.1735,-2.1633,-2.1627,-2.1654,-2.1643,-2.1657,-2.1655,-2.163,-2.1727,-2.1741,-2.1812,-2.1676,-2.1971,-2.1981,-2.199,-2.2103,-2.2124,-2.2142,0,0,0,0,0,-2.1514,-2.1621,-2.1591,-2.1606,-2.1672,-2.174,-2.1748,-2.1717,-2.166,-2.171,-2.1704,-2.1655,-2.1795,-2.1737,-2.1752,-2.1826,-2.1966,-2.1978,-2.1989,-2.2094,-2.212,-2.2142,0,0,0,0,0,0,-2.1623,-2.1621,-2.1588,-2.17,-2.1721,-2.1723,-2.1785,-2.1745,-2.1782,-2.1771,-2.1731,-2.1735,-2.1834,-2.1838,-2.1774,-2.1952,-2.1871,-2.1886,-2.1946,-2.197,-2.1989,-2.1987,-2.1681,0,0,0,0,0,-2.166,-2.1715,-2.171,-2.181,-2.1822,-2.1802,-2.183,-2.1804,-2.1824,-2.1832,-2.1834,-2.1855,-2.1903,-2.1936,-2.1981,-2.2102,-2.2104,-2.216,-2.2179,-2.2195,-2.221,-2.2274,-2.2299,-2.2031,-2.2031,-2.2031,0,0,-2.1738,-2.1743,-2.1781,-2.1832,-2.1845,-2.1903,-2.181,-2.1876,-2.1918,-2.1842,-2.1929,-2.1931,-2.1951,-2.2058,-2.2106,-2.2065,-2.2283,-2.221,-2.2223,-2.2228,-2.2288,-2.2313,-2.2336,-2.2039,-2.2038,-2.2036,0,0,-2.1909,-2.1918,-2.2002,-2.2016,-2.2036,-2.2022,-2.2042,-2.205,-2.2048,-2.2134,-2.2078,-2.2127,-2.2212,-2.2229,-2.2249,-2.2423,-2.2379,-2.2438,-2.2542,-2.2605,-2.2626,-2.2644,-2.2707,-2.273,-2.2452,-2.2452,-2.2453,0,-2.2003,-2.2088,-2.205,-2.212,-2.2144,-2.2076,-2.2161,-2.2176,-2.221,-2.2228,-2.2182,-2.2286,-2.2295,-2.2405,-2.2447,-2.2465,-2.2487,-2.2438,-2.2626,-2.2644,-2.2661,-2.272,-2.2744,-2.246,-2.2459,-2.2458,-2.2457,0,-2.2203,-2.2263,-2.2328,-2.2362,-2.2392,-2.2469,-2.2443,-2.2479,-2.2449,-2.244,-2.2528,-2.2535,-2.258,-2.2603,-2.2576,-2.2709,-2.2684,-2.2632,-2.2551,-2.2694,-2.2749,-2.2772,-2.247,-2.2467,-2.2465,-2.2463,0,0,-2.2447,-2.2457,-2.2482,-2.2496,-2.2511,-2.2557,-2.263,-2.2672,-2.2704,-2.2729,-2.2789,-2.2861,-2.2813,-2.2835,-2.2808,-2.2863,-2.3001,-2.2804,-2.2804,-2.2842,-2.315,-2.319,-2.3217,-2.2971,-2.2975,-2.2978,-2.3148,0,-2.2617,-2.2743,-2.271,-2.2835,-2.289,-2.2825,-2.2888,-2.2904,-2.2896,-2.2941,-2.2932,-2.2984,-2.2916,-2.2929,-2.298,-2.2974,-2.3063,-2.2961,-2.3028,-2.3031,-2.3027,-2.3246,-2.3289,-2.3449,-2.317,-2.3173,-2.3176,0,-2.2834,-2.2866,-2.2997,-2.3002,-2.3024,-2.3081,-2.3117,-2.3161,-2.3177,-2.3167,-2.3191,-2.3153,-2.3224,-2.314,-2.3237,-2.3169,-2.3193,-2.3194,-2.3199,-2.3206,-2.3114,-2.3261,-2.35,-2.3525,-2.3209,-2.3207,-2.3204,0,-2.3001,-2.3076,-2.3164,-2.3178,-2.3186,-2.3228,-2.3233,-2.3245,-2.3272,-2.3303,-2.332,-2.3359,-2.3381,-2.3412,-2.3384,-2.3326,-2.3487,-2.34,-2.3481,-2.3482,-2.3521,-2.3519,-2.3769,-2.3533,-2.3533,-2.3533,-2.3532,0,-2.3196,-2.3279,-2.3239,-2.3294,-2.3384,-2.3344,-2.3434,-2.3432,-2.3443,-2.3495,-2.344,-2.349,-2.345,-2.3496,-2.3475,-2.3559,-2.3569,-2.3564,-2.3558,-2.357,-2.3571,-2.3588,-2.3577,-2.3539,-2.3538,-2.3536,-2.3535,0,-2.3399,-2.3376,-2.3467,-2.3466,-2.3468,-2.3535,-2.3534,-2.3584,-2.357,-2.3638,-2.3651,-2.3631,-2.3682,-2.3657,-2.3711,-2.3696,-2.3806,-2.3784,-2.3801,-2.3796,-2.3879,-2.3872,-2.415,-2.4184,-2.3925,-2.3927,-2.393,0,-2.3526,-2.3588,-2.3594,-2.3625,-2.3633,-2.3684,-2.3711,-2.3673,-2.3704,-2.3726,-2.3773,-2.382,-2.3856,-2.3941,-2.3931,-2.3972,-2.3951,-2.4046,-2.3958,-2.3968,-2.3955,-2.3952,-2.3958,-2.4065,-2.4068,-2.407,-2.4072,0,-2.3755,-2.374,-2.3781,-2.3818,-2.3852,-2.3879,-2.3902,-2.393,-2.3893,-2.393,-2.3981,-2.4009,-2.4063,-2.4111,-2.4145,-2.415,-2.4106,-2.4099,-2.4121,-2.4135,-2.4143,-2.4141,-2.3851,-2.4094,-2.4092,-2.409,-2.4089,-2.4088,-2.3925,-2.3977,-2.3989,-2.4036,-2.4048,-2.4071,-2.4117,-2.4109,-2.4152,-2.4193,-2.4167,-2.4228,-2.4241,-2.4283,-2.4294,-2.4341,-2.4303,-2.4334,-2.4342,-2.435,-2.4362,-2.4134,-2.4346,-2.4346,-2.4345,-2.4345,-2.4344,0,-2.4152,-2.4156,-2.4199,-2.4232,-2.427,-2.4222,-2.4244,-2.4278,-2.4333,-2.4348,-2.4384,-2.4443,-2.4488,-2.448,-2.4521,-2.456,-2.454,-2.4572,-2.457,-2.4572,-2.4393,-2.4371,-2.4587,-2.4587,-2.4587,-2.4587,-2.4587,-2.4587,-2.4275,-2.436,-2.4346,-2.4437,-2.4439,-2.4498,-2.4515,-2.4535,-2.4547,-2.4615,-2.4652,-2.4646,-2.4652,-2.4692,-2.4731,-2.4727,-2.4746,-2.4785,-2.4775,-2.4608,-2.4584,-2.4562,-2.4541,-2.4789,-2.479,-2.495,-2.4951,-2.4953]},{"header":{"parameterUnit":"m.s-1","parameterCategory":1,"la1":30.2991,"la2":30.254,"lo1":-89.0895,"lo2":-89.0444,"dy":0.0017,"dx":0.0017,"nx":28,"ny":28,"refTime":"2023-10-06T21:00:00:Z","depth":0,"parameterNumber":3,"parameterNumberName":"V-component_of_WINDS"},"data":[0,0,0,0,0,0,0,0,0,0,0,0,0,0,0,0,0,0,0,0,0,0,0,0,0,0,0,0,0,0,0,0,0,0,0,0,0,0,0,0,0,0,0,0,0,0,0,0,0,0,0,0,0,0,0,0,0,0,-7.4887,-7.4888,0,-7.4998,-7.4999,-7.5001,-7.4867,-7.4862,-7.4857,-7.4853,-7.496,-7.4967,-7.4974,0,0,0,0,0,0,0,0,0,0,0,0,0,-7.4552,-7.4559,-7.4887,-7.4888,-7.489,-7.4998,-7.4999,-7.5001,-7.4868,-7.4862,-7.4856,-7.485,-7.4957,-7.4966,-7.4975,0,0,0,0,0,0,0,0,0,0,0,0,0,-7.4684,-7.4561,-7.4887,-7.4837,-7.4833,-7.4998,-7.4999,-7.5001,-7.4869,-7.4862,-7.4854,-7.4848,-7.4954,-7.4965,-7.4976,-7.5193,0,0,-7.501,-7.5015,0,0,0,0,0,0,0,0,-7.4676,-7.4696,-7.4843,-7.484,-7.4837,-7.4911,-7.492,-7.5065,-7.4871,-7.4855,-7.4853,-7.4844,-7.4949,-7.496,-7.4997,-7.5198,-7.5203,-7.5011,-7.5018,-7.5023,-7.5026,0,0,0,0,0,0,0,-7.4668,-7.4691,-7.493,-7.4845,-7.4841,-7.4806,-7.4817,-7.4947,-7.4942,-7.4856,-7.4847,-7.4862,-7.4946,-7.4987,-7.4999,-7.5204,-7.5011,-7.5021,-7.5028,-7.5032,-7.5587,-7.5594,0,0,0,0,0,0,-7.4665,-7.4684,-7.4927,-7.4934,-7.4737,-7.4818,-7.483,-7.4895,-7.494,-7.494,-7.4868,-7.4856,-7.4971,-7.4986,-7.5002,-7.5258,-7.5023,-7.5033,-7.504,-7.5579,-7.5588,-7.5597,0,0,0,0,0,0,-7.4659,-7.4688,-7.4923,-7.4807,-7.4834,-7.4832,-7.4906,-7.4901,-7.4941,-7.495,-7.4947,-7.4911,-7.4966,-7.4986,-7.5147,-7.526,-7.5038,-7.5049,-7.5569,-7.5582,-7.5593,-7.5773,0,0,0,0,0,0,-7.465,-7.4687,-7.4771,-7.481,-7.484,-7.5068,-7.4913,-7.4908,-7.4962,-7.4946,-7.4989,-7.4989,-7.4962,-7.5131,-7.5158,-7.5271,-7.5057,-7.5559,-7.5575,-7.5589,-7.5757,-7.579,-7.5818,0,0,0,0,0,-7.4638,-7.4816,-7.4776,-7.4806,-7.4946,-7.5075,-7.5093,-7.5059,-7.4972,-7.5055,-7.506,-7.4988,-7.5243,-7.5148,-7.5178,-7.5296,-7.5552,-7.557,-7.5588,-7.5743,-7.5783,-7.5817,0,0,0,0,0,0,-7.4788,-7.482,-7.4776,-7.4972,-7.5023,-7.5053,-7.5157,-7.5103,-7.5177,-7.5159,-7.5112,-7.5123,-7.5294,-7.531,-7.5204,-7.5507,-7.5383,-7.5408,-7.5491,-7.5529,-7.5559,-7.5551,-7.5067,0,0,0,0,0,-7.4845,-7.495,-7.497,-7.5141,-7.5169,-7.5159,-7.5214,-7.5184,-7.5233,-7.5253,-7.5269,-7.5318,-7.5408,-7.5469,-7.5553,-7.5758,-7.5765,-7.5854,-7.5884,-7.5909,-7.5931,-7.604,-7.6079,-7.5657,-7.5656,-7.5656,0,0,-7.4962,-7.4992,-7.506,-7.5172,-7.5208,-7.5315,-7.5178,-7.5297,-7.5375,-7.527,-7.5423,-7.5437,-7.5488,-7.5672,-7.5753,-7.5691,-7.605,-7.5932,-7.5952,-7.5961,-7.6062,-7.6102,-7.6138,-7.5669,-7.5667,-7.5665,0,0,-7.523,-7.5264,-7.541,-7.5448,-7.5504,-7.5496,-7.5531,-7.557,-7.5576,-7.5729,-7.5653,-7.5743,-7.5901,-7.594,-7.5981,-7.6263,-7.6199,-7.6291,-7.645,-7.6556,-7.659,-7.6619,-7.6719,-7.6755,-7.6313,-7.6313,-7.6314,0,-7.5367,-7.5528,-7.5491,-7.5616,-7.5667,-7.5579,-7.5725,-7.5763,-7.5843,-7.5878,-7.5808,-7.6004,-7.6032,-7.6223,-7.6292,-7.6328,-7.6364,-7.6286,-7.6588,-7.6617,-7.6644,-7.6739,-7.6777,-7.6324,-7.6323,-7.6322,-7.6321,0,-7.5694,-7.5807,-7.5917,-7.5999,-7.6062,-7.6197,-7.6178,-7.6245,-7.621,-7.6209,-7.6365,-7.6395,-7.6483,-7.6526,-7.6492,-7.6712,-7.6672,-7.6596,-7.6469,-7.6696,-7.6784,-7.682,-7.634,-7.6336,-7.6333,-7.633,0,0,-7.606,-7.612,-7.6161,-7.6197,-7.6252,-7.6337,-7.6466,-7.6555,-7.6614,-7.6671,-7.6777,-7.6913,-7.6843,-7.6889,-7.6857,-7.6951,-7.7171,-7.6863,-7.6863,-7.6919,-7.7415,-7.7472,-7.7515,-7.7129,-7.7136,-7.7141,-7.7411,0,-7.6328,-7.6557,-7.6527,-7.6744,-7.6847,-7.6764,-7.6876,-7.6921,-7.6923,-7.7008,-7.7008,-7.7106,-7.7006,-7.7033,-7.7122,-7.7126,-7.727,-7.7106,-7.7226,-7.7231,-7.7217,-7.7561,-7.7622,-7.7875,-7.7445,-7.7451,-7.7455,0,-7.6672,-7.6745,-7.6974,-7.7012,-7.7054,-7.7156,-7.7234,-7.7318,-7.7365,-7.736,-7.7412,-7.7364,-7.7491,-7.7362,-7.7536,-7.7425,-7.7472,-7.7481,-7.749,-7.75,-7.7357,-7.758,-7.7955,-7.7993,-7.7509,-7.7505,-7.7501,0,-7.6916,-7.707,-7.7227,-7.726,-7.7309,-7.7383,-7.7406,-7.7447,-7.7502,-7.7569,-7.7603,-7.7684,-7.7728,-7.7791,-7.7764,-7.7674,-7.7943,-7.7812,-7.7941,-7.7942,-7.8001,-7.7998,-7.8389,-7.8032,-7.8032,-7.8031,-7.803,0,-7.7219,-7.7362,-7.7337,-7.7434,-7.7591,-7.7553,-7.7709,-7.7721,-7.7759,-7.7854,-7.7786,-7.7876,-7.7836,-7.7924,-7.7903,-7.805,-7.807,-7.8068,-7.8061,-7.8074,-7.8075,-7.8104,-7.8086,-7.8041,-7.8039,-7.8037,-7.8035,0,-7.7518,-7.7508,-7.7673,-7.7706,-7.7718,-7.7832,-7.7859,-7.7948,-7.7944,-7.8066,-7.8092,-7.8086,-7.8185,-7.8166,-7.8274,-7.826,-7.8444,-7.8415,-7.8429,-7.8422,-7.8551,-7.8539,-7.8975,-7.9029,-7.8638,-7.8642,-7.8645,0,-7.7712,-7.7821,-7.7866,-7.7926,-7.7956,-7.8054,-7.811,-7.8076,-7.8137,-7.8199,-7.8281,-7.8374,-7.8447,-7.8608,-7.8612,-7.8694,-7.8666,-7.8813,-7.8678,-7.8688,-7.8668,-7.8662,-7.8672,-7.884,-7.8845,-7.8848,-7.8851,0,-7.8058,-7.8047,-7.8132,-7.8216,-7.8285,-7.8349,-7.8405,-7.8458,-7.8428,-7.85,-7.8601,-7.8658,-7.8769,-7.8862,-7.8939,-7.8959,-7.8901,-7.8894,-7.8928,-7.8943,-7.8946,-7.8946,-7.8502,-7.8884,-7.8881,-7.8878,-7.8876,-7.8875,-7.831,-7.8402,-7.8449,-7.8545,-7.8585,-7.8639,-7.8725,-7.8732,-7.8817,-7.8907,-7.8881,-7.8997,-7.9039,-7.9136,-7.9166,-7.9253,-7.9198,-7.9247,-7.926,-7.9273,-7.9288,-7.8933,-7.9267,-7.9266,-7.9265,-7.9264,-7.9264,0,-7.8651,-7.8677,-7.8767,-7.8849,-7.8925,-7.8865,-7.8924,-7.899,-7.9093,-7.914,-7.9213,-7.9329,-7.9419,-7.943,-7.9514,-7.9582,-7.9557,-7.9605,-7.96,-7.9605,-7.9333,-7.9295,-7.9624,-7.9624,-7.9624,-7.9624,-7.9624,-7.9624,-7.8838,-7.8991,-7.8986,-7.9157,-7.918,-7.9295,-7.9334,-7.9383,-7.9419,-7.9553,-7.9628,-7.9636,-7.9667,-7.9753,-7.9832,-7.9832,-7.9866,-7.9925,-7.9915,-7.9661,-7.9625,-7.959,-7.9555,-7.9932,-7.9933,-8.018,-8.0182,-8.0184]}]]